Terug naar catalogus

STARLINK-34959

ActiefCommunicatieSSO
NORAD 65246·PAYLOAD·🇺🇸 United States

Gelanceerd Aug 18, 2025 vanaf Vandenberg Space Force Base

Loading…

Volgende Passages (komende 24 uur)

TLE

VersSource: CelesTrak SupGP

Epoch: Sep 14, 2026, 22:40 UTC

1 65246C 25179M   26257.94493056  .00048249  00000+0  14982-2 0  2578
2 65246  97.2833 297.4089 0001063 105.4160 264.9640 15.33405490    19

Volg STARLINK-34959 in realtime met AllMySat

Download on the App Store